JAT763 SUMU-SBGR

Flight info

Callsign JAT763
Flight time 2h 17m
Altitude 37000
Route MOLBI UM540 AKPOD UZ131 NIGBI UZ121 BUXUK
Aircraft A320/M-SDE3FGHIRWY/LB1

Departure

Time 2026-04-24 17:09
Airport Carrasco General Cesáreo L. Berisso International Airport (SUMU)

Arrival

Time 2026-04-24 19:27
Airport São Paulo/Guarulhos–Governor André Franco Montoro International Airport (SBGR)
Time Latitude Longitude Altitude Speed Heading
2026-04-24 16:57 -34.83536 -56.01652 82 ft 0 kts 143°
2026-04-24 17:01 -34.83526 -56.01661 85 ft 4 kts 144°
2026-04-24 17:02 -34.83480 -56.01695 84 ft 4 kts 161°
2026-04-24 17:02 -34.83457 -56.01699 86 ft 4 kts 213°
2026-04-24 17:02 -34.83452 -56.01694 85 ft 0 kts 233°
2026-04-24 17:04 -34.83465 -56.01717 85 ft 8 kts 233°
2026-04-24 17:05 -34.83504 -56.01780 82 ft 11 kts 233°
2026-04-24 17:05 -34.83554 -56.01862 84 ft 13 kts 233°
2026-04-24 17:05 -34.83686 -56.02076 84 ft 18 kts 233°
2026-04-24 17:06 -34.83768 -56.02210 86 ft 21 kts 231°
2026-04-24 17:06 -34.83947 -56.02334 82 ft 15 kts 268°
2026-04-24 17:06 -34.83947 -56.02475 82 ft 18 kts 271°
2026-04-24 17:07 -34.83945 -56.02581 82 ft 20 kts 271°
2026-04-24 17:07 -34.84010 -56.02807 85 ft 22 kts 268°
2026-04-24 17:07 -34.84024 -56.03051 86 ft 12 kts 238°
2026-04-24 17:08 -34.84153 -56.03073 84 ft 9 kts 324°
2026-04-24 17:08 -34.84123 -56.03075 88 ft 0 kts 356°
2026-04-24 17:09 -34.83167 -56.03084 85 ft 131 kts
2026-04-24 17:09 -34.80954 -56.03123 864 ft 175 kts 360°
2026-04-24 17:10 -34.79653 -56.03138 1368 ft 199 kts
2026-04-24 17:10 -34.75566 -56.00569 3392 ft 255 kts 47°
2026-04-24 17:11 -34.71950 -55.95578 6532 ft 270 kts 46°
2026-04-24 17:12 -34.65005 -55.86958 10720 ft 320 kts 44°
2026-04-24 18:54 -23.83854 -47.85962 32880 ft 510 kts 25°
2026-04-24 18:55 -23.77652 -47.82260 31250 ft 512 kts 30°
2026-04-24 18:55 -23.74822 -47.79941 30347 ft 506 kts 39°
2026-04-24 18:55 -23.72280 -47.77304 29012 ft 502 kts 41°
2026-04-24 18:56 -23.69818 -47.74694 28361 ft 481 kts 42°
2026-04-24 18:56 -23.67473 -47.72197 27733 ft 463 kts 41°
2026-04-24 18:56 -23.65206 -47.69789 27115 ft 447 kts 41°
2026-04-24 18:56 -23.63012 -47.67469 26726 ft 433 kts 41°
2026-04-24 18:57 -23.60815 -47.65163 26425 ft 444 kts 41°
2026-04-24 18:57 -23.58566 -47.62815 26087 ft 450 kts 41°
2026-04-24 18:57 -23.56293 -47.60442 25747 ft 452 kts 41°
2026-04-24 18:57 -23.54029 -47.58074 25406 ft 450 kts 41°
2026-04-24 18:58 -23.51784 -47.55720 25070 ft 447 kts 41°
2026-04-24 18:58 -23.49552 -47.53378 24735 ft 444 kts 41°
2026-04-24 18:58 -23.47335 -47.51048 24398 ft 442 kts 41°
2026-04-24 18:58 -23.45127 -47.48730 24070 ft 439 kts 41°
2026-04-24 18:59 -23.42930 -47.46426 23734 ft 436 kts 41°
2026-04-24 18:59 -23.40748 -47.44142 23377 ft 434 kts 41°
2026-04-24 18:59 -23.38604 -47.41901 23058 ft 431 kts 41°
2026-04-24 18:59 -23.36449 -47.39649 22785 ft 429 kts 41°
2026-04-24 19:00 -23.34304 -47.37408 22511 ft 426 kts 42°
2026-04-24 19:00 -23.32169 -47.35174 22255 ft 424 kts 42°
2026-04-24 19:00 -23.30043 -47.32946 21985 ft 422 kts 42°
2026-04-24 19:00 -23.27935 -47.30740 21721 ft 420 kts 42°
2026-04-24 19:01 -23.25833 -47.28542 21460 ft 417 kts 42°
2026-04-24 19:01 -23.23744 -47.26363 21198 ft 415 kts 41°
2026-04-24 19:01 -23.21666 -47.24201 20936 ft 412 kts 41°
2026-04-24 19:01 -23.19594 -47.22049 20706 ft 410 kts 41°
2026-04-24 19:02 -23.18231 -47.20633 20542 ft 409 kts 41°
2026-04-24 19:02 -23.15495 -47.17784 20207 ft 406 kts 41°
2026-04-24 19:02 -23.13508 -47.15677 19964 ft 404 kts 43°
2026-04-24 19:02 -23.11569 -47.13482 19703 ft 400 kts 45°
2026-04-24 19:03 -23.09723 -47.11288 19563 ft 386 kts 46°
2026-04-24 19:03 -23.07961 -47.09146 19444 ft 372 kts 46°
2026-04-24 19:03 -23.06265 -47.07083 19296 ft 361 kts 46°
2026-04-24 19:03 -23.04595 -47.05070 18992 ft 355 kts 45°
2026-04-24 19:04 -23.02936 -47.03097 18657 ft 352 kts 45°
2026-04-24 19:04 -23.01284 -47.01149 18310 ft 349 kts 45°
2026-04-24 19:04 -22.99641 -46.99220 17893 ft 346 kts 45°
2026-04-24 19:04 -22.98029 -46.97333 17445 ft 342 kts 45°
2026-04-24 19:05 -22.96420 -46.95450 16723 ft 338 kts 45°
2026-04-24 19:05 -22.94833 -46.93592 16045 ft 334 kts 45°
2026-04-24 19:05 -22.93266 -46.91757 15377 ft 330 kts 45°
2026-04-24 19:05 -22.91717 -46.89940 14738 ft 326 kts 45°
2026-04-24 19:06 -22.90186 -46.88140 14232 ft 320 kts 45°
2026-04-24 19:06 -22.88691 -46.86385 14059 ft 317 kts 45°
2026-04-24 19:06 -22.87205 -46.84612 14052 ft 318 kts 50°
2026-04-24 19:06 -22.86001 -46.82589 14063 ft 322 kts 60°
2026-04-24 19:07 -22.84935 -46.80463 14053 ft 321 kts 59°
2026-04-24 19:07 -22.83864 -46.78338 14054 ft 321 kts 59°
2026-04-24 19:07 -22.83154 -46.76929 14055 ft 321 kts 59°
2026-04-24 19:07 -22.81721 -46.74085 14053 ft 321 kts 61°
2026-04-24 19:08 -22.80902 -46.71826 14061 ft 323 kts 72°
2026-04-24 19:08 -22.80273 -46.69485 14058 ft 323 kts 72°
2026-04-24 19:08 -22.79638 -46.67150 14061 ft 323 kts 72°
2026-04-24 19:08 -22.79000 -46.64816 14066 ft 323 kts 72°
2026-04-24 19:09 -22.78465 -46.62452 14061 ft 324 kts 81°
2026-04-24 19:09 -22.78302 -46.60012 14066 ft 325 kts 86°
2026-04-24 19:09 -22.78171 -46.57572 14064 ft 324 kts 85°
2026-04-24 19:09 -22.78036 -46.55134 14068 ft 325 kts 85°
2026-04-24 19:10 -22.77915 -46.52690 14070 ft 325 kts 89°
2026-04-24 19:10 -22.78138 -46.50251 14069 ft 326 kts 99°
2026-04-24 19:10 -22.78522 -46.47831 14073 ft 326 kts 99°
2026-04-24 19:10 -22.78901 -46.45408 14073 ft 326 kts 99°
2026-04-24 19:11 -22.79277 -46.42985 14073 ft 326 kts 99°
2026-04-24 19:11 -22.79851 -46.40609 14080 ft 327 kts 111°
2026-04-24 19:11 -22.80775 -46.38359 14082 ft 327 kts 114°
2026-04-24 19:11 -22.81783 -46.36154 14073 ft 327 kts 124°
2026-04-24 19:12 -22.83334 -46.34422 14077 ft 325 kts 147°
2026-04-24 19:12 -22.85417 -46.33452 14068 ft 323 kts 170°
2026-04-24 19:12 -22.87606 -46.33398 13767 ft 318 kts 193°
2026-04-24 19:12 -22.89631 -46.34249 13503 ft 311 kts 213°
2026-04-24 19:13 -22.90875 -46.35079 13330 ft 311 kts 213°
2026-04-24 19:13 -22.93311 -46.36709 12999 ft 309 kts 213°
2026-04-24 19:13 -22.95141 -46.37928 12751 ft 308 kts 213°
2026-04-24 19:13 -22.96964 -46.39137 12508 ft 307 kts 213°
2026-04-24 19:14 -22.98783 -46.40342 12264 ft 306 kts 213°
2026-04-24 19:14 -23.00596 -46.41542 12012 ft 305 kts 213°
2026-04-24 19:14 -23.02403 -46.42740 11774 ft 304 kts 212°
2026-04-24 19:14 -23.04201 -46.43932 11525 ft 302 kts 213°
2026-04-24 19:15 -23.05992 -46.45117 11290 ft 301 kts 213°
2026-04-24 19:15 -23.07773 -46.46297 11046 ft 300 kts 213°
2026-04-24 19:15 -23.09539 -46.47466 10868 ft 293 kts 212°
2026-04-24 19:15 -23.11249 -46.48599 10755 ft 283 kts 213°
2026-04-24 19:16 -23.14544 -46.50789 10498 ft 274 kts 213°
2026-04-24 19:16 -23.16173 -46.51872 10384 ft 274 kts 213°
2026-04-24 19:16 -23.17803 -46.52933 10260 ft 274 kts 208°
2026-04-24 19:17 -23.19636 -46.53435 10134 ft 274 kts 179°
2026-04-24 19:17 -23.21469 -46.52916 9972 ft 276 kts 150°
2026-04-24 19:17 -23.22843 -46.51499 9685 ft 274 kts 122°
2026-04-24 19:17 -23.23844 -46.49736 9428 ft 273 kts 121°
2026-04-24 19:18 -23.24836 -46.47973 9174 ft 273 kts 121°
2026-04-24 19:18 -23.25829 -46.46213 8918 ft 273 kts 121°
2026-04-24 19:18 -23.26624 -46.44348 8668 ft 271 kts 105°
2026-04-24 19:18 -23.26915 -46.42336 8436 ft 269 kts 90°
2026-04-24 19:19 -23.26934 -46.40298 8102 ft 271 kts 90°
2026-04-24 19:19 -23.26956 -46.38255 7823 ft 270 kts 90°
2026-04-24 19:19 -23.26982 -46.36222 7575 ft 267 kts 90°
2026-04-24 19:19 -23.27009 -46.34206 7334 ft 265 kts 90°
2026-04-24 19:20 -23.27038 -46.32223 7118 ft 264 kts 92°
2026-04-24 19:20 -23.27345 -46.30265 6884 ft 263 kts 108°
2026-04-24 19:20 -23.28104 -46.28465 6633 ft 261 kts 118°
2026-04-24 19:20 -23.28962 -46.26739 6380 ft 256 kts 124°
2026-04-24 19:21 -23.30222 -46.25484 6141 ft 240 kts 155°
2026-04-24 19:21 -23.31784 -46.25101 5920 ft 225 kts 185°
2026-04-24 19:21 -23.33237 -46.25497 5740 ft 207 kts 202°
2026-04-24 19:21 -23.34531 -46.26033 5549 ft 192 kts 202°
2026-04-24 19:22 -23.35350 -46.26369 5427 ft 181 kts 202°
2026-04-24 19:22 -23.36792 -46.27018 5198 ft 159 kts 213°
2026-04-24 19:22 -23.37607 -46.27786 5061 ft 153 kts 233°
2026-04-24 19:22 -23.38128 -46.28767 4936 ft 148 kts 251°
2026-04-24 19:23 -23.38423 -46.29842 4812 ft 146 kts 255°
2026-04-24 19:23 -23.38702 -46.30879 4687 ft 142 kts 255°
2026-04-24 19:23 -23.38980 -46.31908 4550 ft 142 kts 255°
2026-04-24 19:23 -23.39259 -46.32937 4505 ft 142 kts 254°
2026-04-24 19:24 -23.39537 -46.33964 4387 ft 142 kts 255°
2026-04-24 19:24 -23.39816 -46.34991 4239 ft 141 kts 255°
2026-04-24 19:24 -23.40090 -46.36004 4078 ft 141 kts 255°
2026-04-24 19:24 -23.40367 -46.37022 3901 ft 139 kts 256°
2026-04-24 19:25 -23.40638 -46.38022 3735 ft 137 kts 257°
2026-04-24 19:25 -23.40908 -46.39020 3536 ft 138 kts 257°
2026-04-24 19:25 -23.41179 -46.40019 3380 ft 137 kts 254°
2026-04-24 19:25 -23.41448 -46.41015 3218 ft 138 kts 254°
2026-04-24 19:26 -23.41712 -46.42021 3056 ft 140 kts 254°
2026-04-24 19:26 -23.41994 -46.43041 2840 ft 141 kts 252°
2026-04-24 19:26 -23.42179 -46.43721 2746 ft 142 kts 253°
2026-04-24 19:26 -23.42458 -46.44750 2575 ft 142 kts 251°
2026-04-24 19:27 -23.42746 -46.45766 2475 ft 132 kts 251°
2026-04-24 19:27 -23.42940 -46.46529 2473 ft 64 kts 253°
2026-04-24 19:27 -23.42982 -46.46678 2472 ft 1 kts 253°
2026-04-24 19:27 -23.42987 -46.46706 2472 ft 8 kts 272°
2026-04-24 19:28 -23.42930 -46.46769 2471 ft 17 kts 331°
2026-04-24 19:28 -23.42855 -46.46858 2472 ft 20 kts 262°
2026-04-24 19:28 -23.42902 -46.47035 2469 ft 25 kts 255°
2026-04-24 19:28 -23.42859 -46.47113 2468 ft 16 kts 341°
2026-04-24 19:29 -23.42740 -46.47232 2468 ft 2 kts 238°
2026-04-24 19:29 -23.42750 -46.47272 2468 ft 0 kts 253°
2026-04-24 19:29 -23.42751 -46.47276 2472 ft 0 kts 254°